Waarnemingen

Advertentie
Mijn weer
Holmon, Zweden (2287): temperatuur & dauwpunt: 11.07.2019 01:00:00 - 17.07.2019 01:00:00 (CEST)Holmon, Zweden (2287): windsnelheid & windstoten: 11.07.2019 01:00:00 - 17.07.2019 01:00:00 (CEST)Holmon, Zweden (2287): windrichting: 11.07.2019 01:00:00 - 17.07.2019 01:00:00 (CEST)Holmon, Zweden (2287): luchtdruk: 11.07.2019 01:00:00 - 17.07.2019 01:00:00 (CEST)Holmon, Zweden (2287): zicht: 11.07.2019 01:00:00 - 17.07.2019 01:00:00 (CEST)Holmon, Zweden (2287): neerslag: 11.07.2019 01:00:00 - 17.07.2019 01:00:00 (CEST)
Datum & Tijd tt [°C] td [°C] ff [km/u] ff [kn] fx [km/u] fx [kn] dd ppp [hPa] vv [km] rr [mm]
17.07.2019 01:00:00 12,6 10,8 9 5 19 10 N 1013,1 29 0,0
17.07.2019 00:00:00 12,8 11,5 11 6 16 9 NNO 1013,3 26 0,0
16.07.2019 23:00:00 13,1 11,5 13 7 19 10 NO 1013,4 27 0,0
16.07.2019 22:00:00 13,4 11,3 13 7 21 11 NO 1013,3 29 0,0
16.07.2019 21:00:00 13,7 11,4 15 8 22 12 NO 1013,2 26 0,0
16.07.2019 20:00:00 14,1 11,1 14 8 24 13 NO 1013,2 25 0,0
16.07.2019 19:00:00 15,3 11,3 15 8 27 14 NO 1012,9 26 0,0
16.07.2019 18:00:00 14,8 11,0 21 11 29 16 NO 1012,9 28 0,0
16.07.2019 17:00:00 16,2 11,1 18 10 29 16 NO 1012,7 26 0,0
16.07.2019 16:00:00 15,2 11,4 20 11 38 21 NO 1012,6 22 0,0
16.07.2019 15:00:00 16,3 11,9 28 15 40 22 NO 1012,4 24 0,0
16.07.2019 14:00:00 16,3 12,5 31 17 41 22 NO 1012,4 19 0,0
16.07.2019 13:00:00 16,0 12,6 32 18 - - NO 1012,3 22 0,0
16.07.2019 12:00:00 15,9 12,5 32 18 44 24 NNO 1012,1 25 0,0
16.07.2019 11:00:00 15,1 12,8 33 18 45 24 NO 1011,9 22 0,0
16.07.2019 10:00:00 14,7 12,2 34 18 45 24 NO 1011,5 21 0,0
16.07.2019 09:00:00 15,5 12,6 30 16 43 23 NO 1011,4 24 0,0
16.07.2019 08:00:00 13,9 12,3 29 16 41 22 NNO 1011,0 18 0,0
16.07.2019 07:00:00 13,2 11,9 31 17 42 23 NNO 1010,7 18 0,0
16.07.2019 06:00:00 13,2 11,9 32 17 44 24 NO 1010,4 20 0,0
16.07.2019 05:00:00 13,2 12,1 30 16 40 22 NO 1010,3 18 0,0
16.07.2019 04:00:00 13,0 11,7 28 15 41 22 NO 1010,2 17 0,0
16.07.2019 03:00:00 13,0 11,7 34 18 47 25 NO 1009,8 19 0,0
16.07.2019 02:00:00 12,9 11,6 32 18 44 24 NNO 1009,7 21 0,0
16.07.2019 01:00:00 12,8 11,7 31 17 39 21 NO 1009,5 19 0,0
16.07.2019 00:00:00 12,8 11,5 30 16 37 20 NO 1009,4 19 0,1
15.07.2019 23:00:00 12,7 11,8 23 12 31 17 NO 1009,4 15 0,0
15.07.2019 22:00:00 12,9 11,8 19 10 33 18 NO 1009,3 13 0,0
15.07.2019 21:00:00 13,2 11,3 18 10 31 17 NO 1009,1 21 0,0
15.07.2019 20:00:00 13,3 11,0 19 11 30 16 ONO 1009,2 25 0,0
15.07.2019 19:00:00 13,4 11,8 17 9 25 13 ONO 1009,4 23 0,0
15.07.2019 18:00:00 13,5 11,7 15 8 24 13 NO 1009,6 27 0,0
15.07.2019 17:00:00 13,7 11,6 15 8 24 13 NO 1009,6 19 0,0
15.07.2019 16:00:00 13,4 11,3 14 8 21 12 ONO 1009,9 22 0,0
15.07.2019 15:00:00 13,6 10,6 16 9 23 12 O 1009,9 23 0,0
15.07.2019 14:00:00 13,1 11,2 11 6 19 10 O 1009,9 22 0,0
15.07.2019 13:00:00 13,1 11,3 9 5 15 8 OZO 1009,8 27 0,0
15.07.2019 12:00:00 13,1 10,8 9 5 16 9 ZZO 1009,8 32 0,0
15.07.2019 11:00:00 13,1 11,0 8 5 - - ZZO 1009,7 28 0,0
15.07.2019 10:00:00 13,2 11,1 9 5 17 9 ZZO 1009,7 31 0,0
15.07.2019 09:00:00 12,8 11,5 8 5 18 10 ZZO 1009,6 32 0,0
15.07.2019 08:00:00 12,6 12,0 9 5 17 9 ZZO 1009,7 25 0,2
15.07.2019 07:00:00 11,9 11,6 8 5 14 7 ZZO 1009,9 22 0,1
15.07.2019 06:00:00 10,9 10,6 6 4 10 6 ZZO 1010,1 22 0,4
15.07.2019 05:00:00 10,9 10,6 3 2 13 7 Z 1010,5 9 2,2
15.07.2019 04:00:00 10,8 10,3 8 4 18 10 ZZW 1010,8 6 3,5
15.07.2019 03:00:00 11,0 9,9 16 8 31 17 ZW 1011,2 11 0,4
15.07.2019 02:00:00 11,8 10,5 21 11 29 16 WZW 1011,4 16 0,0
15.07.2019 01:00:00 12,6 10,8 16 9 23 12 WZW 1011,6 26 0,0
15.07.2019 00:00:00 12,9 11,0 11 6 20 11 ZW 1012,0 26 0,0
14.07.2019 23:00:00 11,7 9,3 8 4 11 6 ZZW 1012,3 18 0,0
14.07.2019 22:00:00 12,8 9,1 10 5 15 8 ZW 1012,4 20 0,0
14.07.2019 21:00:00 13,1 9,7 6 4 17 9 ZZW 1012,6 19 0,0
14.07.2019 20:00:00 14,8 10,4 8 5 13 7 WZW 1012,7 21 0,0
14.07.2019 19:00:00 16,1 10,4 10 5 19 10 WZW 1013,0 23 0,0
14.07.2019 18:00:00 16,9 10,3 14 8 18 10 WZW 1013,2 22 0,0
14.07.2019 17:00:00 16,2 10,5 11 6 16 9 WZW 1013,6 21 0,0
14.07.2019 16:00:00 17,1 10,2 11 6 16 9 WZW 1013,8 24 0,0
14.07.2019 15:00:00 16,7 10,1 7 4 14 7 W 1013,8 24 0,0
14.07.2019 14:00:00 18,2 8,2 7 4 12 6 ONO 1014,0 23 0,0
14.07.2019 13:00:00 17,6 9,5 8 4 - - NO 1014,2 22 0,0
14.07.2019 12:00:00 16,8 9,5 10 5 16 9 NO 1014,1 24 0,0
14.07.2019 11:00:00 16,8 9,7 9 5 16 8 NO 1014,2 25 0,0
14.07.2019 10:00:00 17,0 8,7 11 6 21 11 ONO 1014,0 26 0,0
14.07.2019 09:00:00 17,0 9,7 9 5 18 10 ONO 1013,9 27 0,0
14.07.2019 08:00:00 16,6 9,8 14 7 20 11 ONO 1013,8 24 0,0
14.07.2019 07:00:00 16,0 12,2 9 5 12 7 ONO 1013,6 26 0,0
14.07.2019 06:00:00 12,3 11,5 5 3 - - NNO 1013,6 25 0,0
14.07.2019 05:00:00 11,2 10,3 3 2 8 4 NNW 1013,5 24 0,0
14.07.2019 04:00:00 10,9 10,0 4 2 6 3 OZO 1013,3 23 0,1
14.07.2019 03:00:00 10,9 10,0 4 2 8 4 NNW 1013,7 25 0,1
14.07.2019 02:00:00 11,1 9,7 4 2 8 4 NW 1013,8 21 0,0
14.07.2019 01:00:00 10,7 9,0 0 0 5 3 N 1013,5 27 0,0
14.07.2019 00:00:00 9,4 7,7 3 1 4 2 NNO 1013,4 21 0,0
13.07.2019 23:00:00 10,5 7,9 2 1 6 3 NW 1013,3 26 0,0
13.07.2019 22:00:00 11,5 8,4 3 2 5 3 W 1013,3 27 0,0
13.07.2019 21:00:00 13,2 9,1 4 2 6 4 NW 1013,1 26 0,0
13.07.2019 20:00:00 13,7 8,5 2 1 8 5 NNW 1013,1 26 0,0
13.07.2019 19:00:00 14,2 9,0 8 4 27 14 NO 1013,0 26 0,0
13.07.2019 18:00:00 15,2 8,9 18 10 29 16 O 1012,8 25 0,0
13.07.2019 17:00:00 15,9 8,4 21 12 30 16 O 1012,7 30 0,0
13.07.2019 16:00:00 16,0 9,7 24 13 36 20 O 1012,7 26 0,0
13.07.2019 15:00:00 16,2 9,1 24 13 - - O 1012,8 22 0,0
13.07.2019 14:00:00 16,3 9,5 23 12 33 18 O 1012,8 25 0,0
13.07.2019 13:00:00 16,6 9,5 22 12 34 18 O 1012,8 26 0,0
13.07.2019 12:00:00 16,2 9,8 26 14 35 19 ONO 1012,6 21 0,0
13.07.2019 11:00:00 16,2 11,1 23 12 33 18 ONO 1012,3 25 0,0
13.07.2019 10:00:00 16,7 10,8 17 9 27 14 NO 1011,9 26 0,0
13.07.2019 09:00:00 17,1 10,7 14 7 - - NNO 1011,6 25 0,0
13.07.2019 08:00:00 16,0 10,7 18 10 26 14 NNO 1011,2 30 0,0
13.07.2019 07:00:00 15,4 10,2 17 9 24 13 NNO 1010,9 25 0,0
13.07.2019 06:00:00 14,5 10,3 6 4 15 8 NNO 1010,8 24 0,0
13.07.2019 05:00:00 11,9 8,2 0 0 9 5 N 1010,6 22 0,0
13.07.2019 04:00:00 10,5 7,4 7 4 - - WNW 1010,6 26 0,0
13.07.2019 03:00:00 10,3 8,6 6 3 13 7 NW 1010,5 27 0,0
13.07.2019 02:00:00 11,5 9,6 7 4 10 6 W 1010,6 28 0,0
13.07.2019 01:00:00 11,9 9,8 5 3 - - W 1010,7 26 0,0
13.07.2019 00:00:00 12,2 9,0 8 4 9 5 WZW 1010,8 27 0,0
12.07.2019 23:00:00 13,0 9,3 6 3 8 4 WZW 1010,9 28 0,0
12.07.2019 22:00:00 14,2 9,2 5 3 9 5 ZW 1010,8 26 0,0
12.07.2019 21:00:00 15,0 9,6 6 3 8 4 ZW 1010,7 28 0,0
12.07.2019 20:00:00 16,4 8,6 4 2 7 4 WZW 1010,5 26 0,0
12.07.2019 19:00:00 17,7 7,1 4 2 6 4 WZW 1010,6 26 0,0
12.07.2019 18:00:00 18,7 5,2 3 2 8 4 WNW 1010,6 25 0,0
12.07.2019 17:00:00 19,7 8,1 6 3 14 7 W 1010,8 27 0,0
12.07.2019 16:00:00 19,0 5,8 5 3 19 10 ZO 1011,0 24 0,0
12.07.2019 15:00:00 19,4 9,9 9 5 15 8 ONO 1010,9 22 0,0
12.07.2019 14:00:00 18,2 8,7 4 2 11 6 NNO 1011,3 25 0,0
12.07.2019 13:00:00 18,3 11,1 11 6 18 10 WZW 1011,2 27 0,0
12.07.2019 12:00:00 17,3 9,9 14 8 19 11 WZW 1011,0 22 0,0
12.07.2019 11:00:00 17,9 6,4 11 6 16 9 WZW 1011,0 25 0,0
12.07.2019 10:00:00 16,7 6,2 8 4 10 6 ZW 1011,2 26 0,0
12.07.2019 09:00:00 16,4 6,2 2 1 4 2 WZW 1011,3 28 0,0
12.07.2019 08:00:00 17,0 7,6 2 1 5 3 N 1011,2 27 0,0
12.07.2019 07:00:00 16,1 9,3 2 1 4 2 NO 1011,3 27 0,0
12.07.2019 06:00:00 12,8 8,7 0 0 3 2 N 1011,3 28 0,0
12.07.2019 05:00:00 12,1 8,4 0 0 3 1 N 1011,3 30 0,0
12.07.2019 04:00:00 9,2 7,3 0 0 7 4 N 1011,4 27 0,0
12.07.2019 03:00:00 9,5 7,3 0 0 9 5 N 1011,3 28 0,0
12.07.2019 02:00:00 9,7 8,1 0 0 7 4 N 1011,3 29 0,0
12.07.2019 01:00:00 9,3 7,7 4 2 8 5 NW 1011,4 28 0,0
12.07.2019 00:00:00 9,6 8,0 5 3 8 4 WNW 1011,5 25 0,0
11.07.2019 23:00:00 9,6 7,0 2 1 5 3 N 1011,5 28 0,0
11.07.2019 22:00:00 11,1 8,7 4 2 - - NO 1011,5 25 0,0
11.07.2019 21:00:00 12,3 5,7 0 0 6 4 N 1011,2 26 0,0
11.07.2019 20:00:00 13,9 8,1 4 2 7 4 NW 1011,4 27 0,0
11.07.2019 19:00:00 14,0 8,4 4 2 10 6 NNW 1011,6 27 0,0
11.07.2019 18:00:00 15,0 7,8 8 4 21 11 ONO 1011,6 28 0,0
11.07.2019 17:00:00 16,3 5,9 16 9 25 14 O 1011,6 30 0,0
11.07.2019 16:00:00 16,7 4,4 19 10 27 15 O 1011,7 28 0,0
11.07.2019 15:00:00 17,6 7,3 16 8 27 15 O 1012,0 25 0,0
11.07.2019 14:00:00 17,3 8,4 17 9 24 13 O 1012,1 22 0,0
11.07.2019 13:00:00 17,5 7,8 14 8 24 13 ONO 1012,2 24 0,0
11.07.2019 12:00:00 18,4 7,5 10 5 17 9 ONO 1012,3 27 0,0
11.07.2019 11:00:00 17,1 8,3 10 5 14 8 ONO 1012,5 24 0,0
11.07.2019 10:00:00 16,3 9,9 6 3 19 11 NNO 1012,8 32 0,0
11.07.2019 09:00:00 15,2 9,5 10 6 24 13 N 1012,8 31 0,0
11.07.2019 08:00:00 11,7 9,3 17 9 24 13 N 1012,8 26 0,0
11.07.2019 07:00:00 11,6 9,3 17 9 28 15 NNO 1012,6 25 0,0
11.07.2019 06:00:00 11,7 9,6 21 11 - - NNO 1012,8 24 0,0
11.07.2019 05:00:00 10,1 8,9 24 13 32 17 N 1012,7 22 0,0
11.07.2019 04:00:00 9,4 8,5 16 8 34 19 N 1012,9 24 0,0
11.07.2019 03:00:00 9,7 8,3 16 9 30 16 N 1012,9 25 0,0
11.07.2019 02:00:00 9,7 8,3 18 10 28 15 N 1013,0 25 0,0
11.07.2019 01:00:00 10,7 8,6 23 12 32 18 NNO 1012,9 26 0,0

tt = temperatuur
td = dauwpunt
ff = windsnelheid
fx = windstoten
dd = windrichting
ppp = luchtdruk
vv = zicht
rr = neerslag

Weerstations in de omgeving